SM2GSR-2 Weather Reports


time (UTC)temp
F
wind
direction
speed
knots
gust
knots
rain 1hr
in
rain 24hr
in
rain mn
in
humidity
%
barometer
mb
20260905203004 41 49 0.0 0.0 0.00 0.00 0.00 87 999.4
20260905202504 41 49 0.0 0.0 0.00 0.00 0.00 88 999.2
20260905202004 41 49 0.0 0.0 0.00 0.00 0.00 88 999.2
20260905201504 41 49 0.0 0.0 0.00 0.00 0.00 88 999.1
20260905201004 41 49 0.0 0.0 0.00 0.00 0.00 88 999.0
20260905200504 41 49 0.0 0.0 0.00 0.00 0.00 89 999.0
20260905200004 40 49 0.0 0.0 0.00 0.00 0.00 89 998.9
20260905195504 40 49 0.0 0.0 0.00 0.00 0.00 89 998.9
20260905195004 40 49 0.0 0.0 0.00 0.00 0.00 89 998.9
20260905194504 40 49 0.0 0.0 0.00 0.00 0.00 90 998.8
20260905193004 41 49 0.0 0.0 0.00 0.00 0.00 90 998.7
20260905192504 41 49 0.0 0.0 0.00 0.00 0.00 90 998.6
20260905192004 41 49 0.0 0.0 0.00 0.00 0.00 90 998.6
20260905191504 41 49 0.0 0.0 0.00 0.00 0.00 89 998.5
20260905191004 41 49 0.0 0.0 0.00 0.00 0.00 90 998.4
20260905190504 42 49 0.0 0.0 0.00 0.00 0.00 89 998.4
20260905190004 42 49 0.0 0.0 0.00 0.00 0.00 89 998.3
20260905185503 42 49 0.0 0.0 0.00 0.00 0.00 89 998.3
20260905185004 43 49 0.0 0.0 0.00 0.00 0.00 89 998.2
20260905184504 43 49 0.0 0.0 0.00 0.00 0.00 88 998.1
20260905184004 44 49 0.0 0.0 0.00 0.00 0.00 88 998.2
20260905183003 45 49 0.0 0.0 0.00 0.00 0.00 91 998.1
20260905182503 45 49 0.0 0.0 0.00 0.00 0.00 87 998.0
20260905182004 46 49 0.0 0.0 0.00 0.00 0.00 87 997.9
20260905181504 46 49 0.0 0.0 0.00 0.00 0.00 87 997.8
20260905181003 47 49 0.0 0.0 0.00 0.00 0.00 86 997.8
20260905180504 47 49 0.0 0.0 0.00 0.00 0.00 86 997.7
20260905180003 48 49 0.0 0.0 0.00 0.00 0.00 85 997.8
20260905175004 49 49 0.0 0.0 0.00 0.00 0.00 84 997.6
20260905173504 51 49 0.0 0.0 0.00 0.00 0.00 83 997.4
20260905173004 51 49 0.0 0.0 0.00 0.00 0.00 81 997.4
20260905172504 51 49 0.0 0.0 0.00 0.00 0.00 80 997.4
20260905172003 52 49 0.0 0.0 0.00 0.00 0.00 81 997.3
20260905171504 52 49 0.0 0.0 0.00 0.00 0.00 80 997.3
20260905171004 53 49 0.0 0.0 0.00 0.00 0.00 79 997.3
20260905170503 53 49 0.0 0.0 0.00 0.00 0.00 74 997.2
20260905170005 53 49 0.0 0.0 0.00 0.00 0.00 72 997.1
20260905165004 53 49 0.0 0.0 0.00 0.00 0.00 71 996.9
20260905163504 53 55 1.7 5.2 0.00 0.00 0.00 71 996.6
20260905163004 52 36 0.9 4.3 0.00 0.00 0.00 74 996.5
20260905162503 51 314 0.0 4.3 0.00 0.00 0.00 79 996.4
20260905162003 52 301 0.0 0.0 0.00 0.00 0.00 80 996.4
20260905161503 52 301 0.0 0.0 0.00 0.00 0.00 77 996.4
20260905161004 53 301 0.0 0.0 0.00 0.00 0.00 76 996.4
20260905160504 53 301 0.0 0.0 0.00 0.00 0.00 74 996.4
20260905160004 54 301 0.0 0.0 0.00 0.00 0.00 73 996.4
20260905155504 54 301 0.0 0.9 0.00 0.00 0.00 72 996.3
20260905155004 54 301 0.0 2.6 0.00 0.00 0.00 72 996.3
20260905154505 54 300 1.7 2.6 0.00 0.00 0.00 73 996.3
20260905154003 54 335 0.0 2.6 0.00 0.00 0.00 74 996.3
20260905153504 54 328 0.9 2.6 0.00 0.00 0.00 75 996.2
20260905152504 54 324 0.0 0.9 0.00 0.00 0.00 77 996.1
20260905152004 54 325 0.0 0.0 0.00 0.00 0.00 76 996.1
20260905151004 54 325 0.0 0.0 0.00 0.00 0.00 72 996.1
20260905150504 55 325 0.0 2.6 0.00 0.00 0.00 69 996.0
20260905150004 55 328 0.0 0.0 0.00 0.00 0.00 70 996.0
20260905145504 55 328 0.0 0.0 0.00 0.01 0.00 74 996.0
20260905144504 54 328 0.0 2.6 0.00 0.02 0.00 72 995.9
20260905144003 54 331 0.9 2.6 0.00 0.02 0.00 68 995.8
20260905143504 54 342 0.0 1.7 0.00 0.02 0.00 67 995.8
20260905143004 54 333 0.9 2.6 0.00 0.02 0.00 68 995.8
20260905142504 54 329 1.7 5.2 0.00 0.02 0.00 67 995.8
20260905142004 54 342 1.7 8.7 0.00 0.02 0.00 66 995.7
20260905141504 55 354 2.6 6.1 0.00 0.02 0.00 65 995.7
20260905141004 55 332 0.0 2.6 0.00 0.02 0.00 64 995.7
20260905140504 56 19 2.6 6.1 0.00 0.02 0.00 62 995.6
20260905135503 58 333 4.3 7.8 0.00 0.02 0.00 61 995.4
20260905135004 58 348 1.7 7.0 0.00 0.02 0.00 63 995.4
20260905134503 58 305 1.7 5.2 0.00 0.03 0.00 64 995.2
20260905134004 57 300 1.7 2.6 0.00 0.03 0.00 71 995.2
20260905133503 55 312 0.0 2.6 0.00 0.03 0.00 75 995.3
20260905133004 55 311 0.0 0.0 0.00 0.03 0.00 71 995.2
20260905132503 55 311 0.0 0.0 0.00 0.03 0.00 70 995.2
20260905132003 55 311 1.7 2.6 0.00 0.03 0.00 68 995.2
20260905131004 56 328 0.0 0.0 0.00 0.03 0.00 68 995.1
20260905130504 56 341 0.0 1.7 0.00 0.03 0.00 68 995.1
20260905130004 56 8 0.0 1.7 0.00 0.03 0.00 72 995.1
20260905125504 55 24 0.0 0.0 0.00 0.03 0.00 70 995.1
20260905125004 55 24 0.0 1.7 0.00 0.03 0.00 67 995.1
20260905124504 56 329 0.0 0.9 0.00 0.03 0.00 66 995.0
20260905124004 57 329 0.9 2.6 0.00 0.03 0.00 64 995.0
20260905123504 58 17 0.9 4.3 0.00 0.04 0.00 62 995.0
20260905123005 58 38 1.7 5.2 0.00 0.04 0.00 64 995.0
20260905122504 58 322 0.0 2.6 0.00 0.05 0.00 64 994.8
20260905122003 57 316 1.7 4.3 0.00 0.07 0.00 71 994.8
20260905121504 57 303 0.9 4.3 0.00 0.08 0.00 69 994.8
20260905121004 56 331 0.9 5.2 0.00 0.08 0.00 67 994.9
20260905120504 56 302 1.7 2.6 0.00 0.08 0.00 70 994.8
20260905120004 56 9 0.0 2.6 0.00 0.08 0.00 65 994.8
20260905115503 57 27 1.7 4.3 0.00 0.08 0.00 66 994.8
20260905115004 57 284 0.0 5.2 0.00 0.08 0.00 68 994.8
20260905114504 56 298 0.0 2.6 0.00 0.08 0.00 69 994.8
20260905114004 56 298 0.9 2.6 0.00 0.08 0.00 70 994.8
20260905113003 55 328 2.6 5.2 0.00 0.08 0.00 71 994.7
20260905112503 55 348 2.6 7.0 0.00 0.09 0.00 68 994.7
20260905111504 55 344 0.0 2.6 0.00 0.13 0.00 71 994.7
20260905111004 54 344 0.0 0.9 0.00 0.18 0.00 72 994.7
20260905110504 54 350 0.9 2.6 0.00 0.20 0.00 72 994.6
20260905110004 55 328 0.0 5.2 0.00 0.20 0.00 70 994.6
20260905105504 55 303 1.7 4.3 0.00 0.20 0.00 71 994.5
20260905104004 55 16 0.0 4.3 0.00 0.20 0.00 76 994.5
20260905103004 53 304 0.0 4.3 0.00 0.20 0.00 77 994.4
20260905102504 54 343 0.9 7.0 0.00 0.20 0.00 74 994.4
20260905102004 55 70 0.9 2.6 0.00 0.20 0.00 70 994.4
20260905101504 55 76 2.6 6.1 0.00 0.20 0.00 72 994.4
20260905101004 55 66 2.6 7.0 0.00 0.20 0.00 75 994.3
20260905095504 54 17 1.7 5.2 0.00 0.20 0.00 73 994.3
20260905095004 54 356 2.6 6.1 0.00 0.20 0.00 75 994.3
20260905094504 54 81 1.7 2.6 0.00 0.20 0.00 78 994.3
20260905094004 53 65 1.7 4.3 0.00 0.20 0.00 80 994.2
20260905093504 52 53 2.6 5.2 0.00 0.20 0.00 77 994.2
20260905093004 52 74 1.7 5.2 0.00 0.20 0.00 78 994.2
20260905092010 52 0 0.9 4.3 0.00 0.20 0.00 79 994.1
20260905091504 51 68 2.6 4.3 0.00 0.20 0.00 80 994.1
20260905091004 51 63 2.6 5.2 0.00 0.20 0.00 80 994.1
20260905090504 51 23 1.7 2.6 0.00 0.20 0.00 80 994.1
20260905085504 51 339 1.7 4.3 0.00 0.20 0.00 80 994.1
20260905085003 51 335 2.6 6.1 0.00 0.20 0.00 80 994.1
20260905084504 51 2 0.9 5.2 0.00 0.20 0.00 81 994.1
20260905084003 51 357 1.7 5.2 0.00 0.20 0.00 84 994.0
20260905083503 50 66 1.7 5.2 0.00 0.20 0.00 84 994.0
20260905082503 50 7 0.9 2.6 0.00 0.20 0.00 86 994.0
20260905082004 50 329 0.0 2.6 0.00 0.20 0.00 85 994.0
20260905081504 50 337 1.7 4.3 0.00 0.20 0.00 86 994.0
20260905080504 50 7 0.9 4.3 0.00 0.20 0.00 87 994.0
20260905080004 49 329 2.6 6.1 0.00 0.20 0.00 87 993.9
20260905075504 50 15 1.7 6.1 0.00 0.20 0.00 88 993.9
20260905074504 50 24 0.9 2.6 0.00 0.20 0.00 89 993.9
20260905074003 50 359 0.9 4.3 0.00 0.20 0.00 88 993.8
20260905073504 50 355 0.9 4.3 0.00 0.20 0.00 88 993.7
20260905073003 49 340 1.7 5.2 0.00 0.20 0.00 88 993.8
20260905072004 49 40 1.7 2.6 0.00 0.20 0.00 88 993.7
20260905071003 49 328 1.7 4.3 0.00 0.20 0.00 88 993.6
20260905070004 49 338 0.9 2.6 0.00 0.20 0.00 89 993.6
20260905065004 49 329 0.9 7.0 0.00 0.20 0.00 88 993.5
20260905064504 49 41 2.6 7.8 0.00 0.20 0.00 89 993.4
20260905064003 49 344 0.9 4.3 0.00 0.20 0.00 89 993.4
20260905063004 49 61 0.0 0.0 0.00 0.20 0.00 89 993.4
20260905062503 49 61 0.9 2.6 0.00 0.20 0.00 89 993.4
20260905062004 49 27 0.0 1.7 0.00 0.20 0.00 89 993.3
20260905061504 49 29 0.0 2.6 0.00 0.20 0.00 90 993.3
20260905061004 49 26 0.0 0.0 0.00 0.20 0.00 90 993.3
20260905060506 49 348 0.9 2.6 0.00 0.20 0.00 90 993.1
20260905060003 49 354 0.9 7.8 0.00 0.20 0.00 90 993.2
20260905055506 49 333 0.0 7.8 0.00 0.20 0.00 90 993.2
20260905055004 49 9 0.9 2.6 0.00 0.20 0.00 90 993.1
20260905054504 49 27 0.9 2.6 0.00 0.20 0.00 90 993.1
20260905054004 49 7 0.0 2.6 0.00 0.20 0.00 89 993.1
20260905053504 49 347 0.9 2.6 0.00 0.20 0.00 89 993.0
20260905053004 49 348 0.0 0.0 0.00 0.20 0.00 89 993.0
20260905052503 49 348 0.0 2.6 0.00 0.20 0.00 89 993.0
20260905051503 49 348 0.0 2.6 0.00 0.20 0.00 89 993.0
20260905051004 49 348 0.0 2.6 0.00 0.20 0.00 89 993.0
20260905050504 49 355 1.7 2.6 0.00 0.20 0.00 89 992.9
20260905050004 49 352 0.9 2.6 0.00 0.20 0.00 89 992.9
20260905045004 49 327 0.9 2.6 0.00 0.20 0.00 90 992.9
20260905044504 49 321 0.0 2.6 0.00 0.20 0.00 90 992.9
20260905044004 49 322 1.7 4.3 0.00 0.20 0.00 90 992.9
20260905043504 49 336 1.7 4.3 0.00 0.20 0.00 90 992.8
20260905043004 49 344 1.7 4.3 0.00 0.20 0.00 90 992.8
20260905042004 49 351 0.0 0.0 0.00 0.20 0.00 90 992.7
20260905041504 49 351 0.0 0.0 0.00 0.20 0.00 90 992.7
20260905041005 49 351 0.0 0.0 0.00 0.20 0.00 90 992.7
20260905040504 49 351 0.0 0.0 0.00 0.20 0.00 90 992.7
20260905040004 49 350 0.0 0.0 0.00 0.20 0.00 90 992.7
20260905035505 49 350 0.0 0.9 0.00 0.20 0.00 90 992.7
20260905034503 49 12 0.0 0.0 0.00 0.20 0.00 90 992.6
20260905033004 49 12 0.0 0.9 0.00 0.20 0.00 90 992.5
20260905032505 49 12 0.0 0.0 0.00 0.20 0.00 90 992.5
20260905032004 49 12 0.0 4.3 0.00 0.20 0.00 90 992.5
20260905031004 49 32 0.0 0.0 0.00 0.20 0.00 90 992.4
20260905030003 50 32 0.0 0.0 0.00 0.20 0.00 90 992.5
20260905025504 50 32 0.0 0.0 0.00 0.20 0.00 90 992.4
20260905025004 50 32 0.0 0.0 0.00 0.20 0.00 90 992.4
20260905024004 50 34 0.0 0.0 0.00 0.20 0.00 90 992.5
20260905023504 50 34 0.0 0.0 0.00 0.20 0.00 90 992.4
20260905023004 50 34 0.0 0.0 0.00 0.20 0.00 90 992.4
20260905022504 50 34 0.0 0.0 0.00 0.20 0.00 90 992.4
20260905022004 50 34 0.0 0.0 0.00 0.20 0.00 90 992.4
20260905021504 50 34 0.0 0.0 0.00 0.20 0.00 90 992.4
20260905021004 50 34 0.0 1.7 0.00 0.20 0.00 90 992.4
20260905020504 50 34 0.9 2.6 0.00 0.20 0.00 90 992.4
20260905020004 50 34 0.9 2.6 0.00 0.20 0.00 90 992.3
20260905015504 50 35 0.9 1.7 0.00 0.20 0.00 90 992.3
20260905015004 50 35 0.9 2.6 0.00 0.20 0.00 90 992.3
20260905014503 50 36 0.0 2.6 0.00 0.20 0.00 89 992.3
20260905014004 50 36 0.0 2.6 0.00 0.20 0.00 89 992.3
20260905012504 50 42 0.0 1.7 0.00 0.20 0.00 89 992.1
20260905012004 50 42 0.0 0.0 0.00 0.20 0.00 89 992.1
20260905011504 50 42 0.0 0.0 0.00 0.20 0.00 89 992.1
20260905011003 50 42 0.0 0.0 0.00 0.20 0.00 89 992.1
20260905010004 50 42 0.0 0.9 0.00 0.20 0.00 89 992.1
20260905005503 50 42 0.9 2.6 0.00 0.20 0.00 91 992.1
20260905005004 50 42 0.0 0.0 0.00 0.20 0.00 92 992.1
20260905004004 50 42 0.0 0.0 0.00 0.20 0.00 89 992.0
20260905003504 50 42 0.0 0.0 0.00 0.20 0.00 89 992.0
20260905002504 50 42 0.9 2.6 0.00 0.20 0.00 91 992.0
20260905002004 50 42 0.0 0.9 0.00 0.20 0.00 92 992.0
20260905001505 50 42 0.0 0.0 0.00 0.20 0.00 88 992.1
20260905001003 50 42 0.0 0.0 0.00 0.20 0.00 88 992.1
20260905000504 50 42 0.0 0.0 0.00 0.20 0.00 88 992.1
20260904235004 50 42 0.0 0.0 0.00 0.20 0.00 88 992.2
20260904234504 50 42 0.0 0.0 0.00 0.20 0.00 88 992.3
20260904234003 50 42 0.0 0.0 0.00 0.20 0.00 88 992.3
20260904233504 50 42 0.0 0.0 0.00 0.20 0.00 88 992.3
20260904233004 50 42 0.0 0.0 0.00 0.20 0.00 88 992.3
20260904232504 50 42 0.0 0.0 0.00 0.20 0.00 89 992.2
20260904232004 51 42 0.0 0.0 0.00 0.20 0.00 89 992.3
20260904231504 51 42 0.0 0.0 0.00 0.20 0.00 89 992.3
20260904230504 51 43 0.0 0.0 0.00 0.20 0.00 89 992.3
20260904230004 51 43 0.0 0.9 0.00 0.20 0.00 89 992.3
20260904225504 51 43 0.0 0.0 0.00 0.20 0.00 89 992.3
20260904224504 51 43 0.0 0.0 0.00 0.20 0.00 89 992.3
20260904224003 51 43 0.0 0.0 0.00 0.20 0.00 89 992.3
20260904223504 51 43 0.0 0.0 0.00 0.20 0.00 89 992.4
20260904223004 51 43 0.0 0.0 0.00 0.20 0.00 89 992.4
20260904222504 51 43 0.0 1.7 0.00 0.20 0.00 88 992.4
20260904222004 51 43 0.0 1.7 0.00 0.20 0.00 88 992.4
20260904221504 51 43 0.0 0.9 0.00 0.20 0.00 88 992.5
20260904221004 51 43 0.0 2.6 0.00 0.20 0.00 88 992.5
20260904220504 51 43 0.0 1.7 0.00 0.20 0.00 88 992.5
20260904220004 51 43 0.0 0.0 0.00 0.20 0.00 88 992.5
20260904215503 51 43 0.0 0.0 0.00 0.20 0.20 88 992.5
20260904215004 51 43 0.0 0.9 0.00 0.20 0.20 88 992.5
20260904214003 51 43 0.0 0.0 0.00 0.20 0.20 88 992.5
20260904213504 51 43 0.0 1.7 0.00 0.20 0.20 88 992.5
20260904213004 51 44 0.9 2.6 0.00 0.20 0.20 88 992.4
20260904212004 51 53 0.0 0.0 0.00 0.20 0.20 88 992.4
20260904211504 51 53 0.0 0.9 0.00 0.20 0.20 88 992.4
20260904211004 51 355 0.0 0.0 0.00 0.20 0.20 88 992.5
20260904210505 51 355 0.9 2.6 0.00 0.20 0.20 88 992.5
20260904210004 51 355 0.0 0.0 0.00 0.20 0.20 88 992.5
20260904205503 51 355 0.0 1.7 0.00 0.20 0.20 88 992.4
20260904205004 51 355 0.0 0.0 0.00 0.20 0.20 88 992.5
20260904204504 51 0 0.0 0.0 0.00 0.20 0.20 88 992.5